| time (UTC) | temp F | wind direction | speed MPH | gust MPH | rain 1hr in | rain 24hr in | rain mn in | humidity % | barometer mb |
| 20260508130509 | 52 | 295 | 3.0 | 12.0 | 0.00 | 0.00 | 0.00 | 86 | 1018.4 |
| 20260508130009 | 51 | 5 | 5.0 | 12.0 | 0.00 | 0.00 | 0.00 | 86 | 1018.4 |
| 20260508125510 | 51 | 321 | 5.0 | 15.0 | 0.00 | 0.00 | 0.00 | 86 | 1018.3 |
| 20260508125008 | 51 | 19 | 7.0 | 15.0 | 0.00 | 0.00 | 0.00 | 87 | 1018.4 |
| 20260508124509 | 51 | 5 | 3.0 | 14.0 | 0.00 | 0.00 | 0.00 | 87 | 1018.4 |
| 20260508124008 | 51 | 298 | 7.0 | 14.0 | 0.00 | 0.00 | 0.00 | 87 | 1018.5 |
| 20260508123508 | 50 | 17 | 6.0 | 13.0 | 0.00 | 0.00 | 0.00 | 88 | 1018.5 |
| 20260508123009 | 50 | 317 | 3.0 | 13.0 | 0.00 | 0.00 | 0.00 | 88 | 1018.4 |
| 20260508122508 | 50 | 298 | 5.0 | 13.0 | 0.00 | 0.00 | 0.00 | 88 | 1018.4 |
| 20260508122008 | 50 | 305 | 4.0 | 13.0 | 0.00 | 0.00 | 0.00 | 88 | 1018.5 |
| 20260508121508 | 50 | 320 | 7.0 | 16.0 | 0.00 | 0.00 | 0.00 | 88 | 1018.4 |
| 20260508121007 | 50 | 11 | 7.0 | 16.0 | 0.00 | 0.00 | 0.00 | 88 | 1018.4 |
| 20260508120506 | 50 | 317 | 7.0 | 19.0 | 0.00 | 0.00 | 0.00 | 87 | 1018.4 |
| 20260508120006 | 50 | 312 | 7.0 | 19.0 | 0.00 | 0.00 | 0.00 | 86 | 1018.3 |
| 20260508115506 | 50 | 297 | 9.0 | 17.0 | 0.00 | 0.00 | 0.00 | 86 | 1018.3 |
| 20260508115005 | 51 | 277 | 9.0 | 17.0 | 0.00 | 0.00 | 0.00 | 85 | 1018.3 |
| 20260508114505 | 52 | 329 | 4.0 | 13.0 | 0.00 | 0.00 | 0.00 | 86 | 1018.2 |
| 20260508114007 | 52 | 321 | 4.0 | 15.0 | 0.00 | 0.00 | 0.00 | 86 | 1018.2 |
| 20260508113504 | 52 | 5 | 6.0 | 17.0 | 0.00 | 0.00 | 0.00 | 87 | 1018.1 |
| 20260508113003 | 51 | 337 | 7.0 | 17.0 | 0.00 | 0.00 | 0.00 | 88 | 1018.1 |
| 20260508112502 | 51 | 307 | 2.0 | 13.0 | 0.00 | 0.00 | 0.00 | 87 | 1018.1 |
| 20260508112100 | 51 | 304 | 5.0 | 14.0 | 0.00 | 0.00 | 0.00 | 88 | 1018.1 |
| 20260508111659 | 51 | 349 | 6.0 | 15.0 | 0.00 | 0.00 | 0.00 | 89 | 1018.1 |
| 20260508111102 | 51 | 332 | 6.0 | 15.0 | 0.00 | 0.00 | 0.00 | 89 | 1018.1 |
| 20260508110557 | 51 | 312 | 4.0 | 12.0 | 0.00 | 0.00 | 0.00 | 90 | 1018.1 |
| 20260508110058 | 51 | 9 | 5.0 | 11.0 | 0.00 | 0.00 | 0.00 | 91 | 1018.0 |
| 20260508105558 | 50 | 360 | 2.0 | 16.0 | 0.00 | 0.00 | 0.00 | 91 | 1018.0 |
| 20260508105055 | 50 | 350 | 10.0 | 16.0 | 0.00 | 0.00 | 0.00 | 91 | 1018.0 |
| 20260508104619 | 51 | 327 | 6.0 | 12.0 | 0.00 | 0.00 | 0.00 | 92 | 1018.0 |
| 20260508104054 | 50 | 331 | 5.0 | 10.0 | 0.00 | 0.00 | 0.00 | 93 | 1017.9 |
| 20260508103552 | 49 | 300 | 3.0 | 8.0 | 0.00 | 0.00 | 0.00 | 94 | 1017.9 |
| 20260508103050 | 49 | 355 | 3.0 | 9.0 | 0.00 | 0.00 | 0.00 | 94 | 1017.9 |
| 20260508102548 | 48 | 19 | 0.0 | 0.0 | 0.00 | 0.00 | 0.00 | 94 | 1017.9 |
| 20260508102048 | 48 | 350 | 0.0 | 0.0 | 0.00 | 0.00 | 0.00 | 94 | 1017.9 |
| 20260508101551 | 48 | 336 | 0.0 | 0.0 | 0.00 | 0.00 | 0.00 | 94 | 1018.0 |
| 20260508101048 | 48 | 277 | 0.0 | 0.0 | 0.00 | 0.00 | 0.00 | 94 | 1018.0 |
| 20260508100547 | 48 | 274 | 0.0 | 0.0 | 0.00 | 0.00 | 0.00 | 94 | 1018.0 |
| 20260508100048 | 48 | 305 | 0.0 | 0.0 | 0.00 | 0.00 | 0.00 | 94 | 1018.1 |
| 20260508095548 | 48 | 323 | 0.0 | 3.0 | 0.00 | 0.00 | 0.00 | 94 | 1018.0 |
| 20260508095047 | 48 | 355 | 0.0 | 11.0 | 0.00 | 0.00 | 0.00 | 95 | 1018.0 |
| 20260508094548 | 48 | 309 | 4.0 | 11.0 | 0.00 | 0.00 | 0.00 | 94 | 1017.9 |
| 20260508094045 | 48 | 291 | 4.0 | 11.0 | 0.00 | 0.00 | 0.00 | 94 | 1017.9 |
| 20260508093548 | 48 | 296 | 0.0 | 11.0 | 0.00 | 0.00 | 0.00 | 95 | 1017.9 |
| 20260508093045 | 48 | 338 | 4.0 | 11.0 | 0.00 | 0.00 | 0.00 | 95 | 1017.9 |
| 20260508092546 | 48 | 331 | 2.0 | 8.0 | 0.00 | 0.00 | 0.00 | 95 | 1017.8 |
| 20260508092043 | 48 | 296 | 0.0 | 11.0 | 0.00 | 0.00 | 0.00 | 95 | 1017.9 |
| 20260508091543 | 47 | 296 | 3.0 | 15.0 | 0.00 | 0.00 | 0.00 | 95 | 1017.9 |
| 20260508090543 | 47 | 296 | 6.0 | 13.0 | 0.00 | 0.00 | 0.00 | 95 | 1017.9 |
| 20260508090052 | 47 | 288 | 6.0 | 13.0 | 0.00 | 0.00 | 0.00 | 95 | 1017.8 |
| 20260508085540 | 47 | 302 | 8.0 | 13.0 | 0.00 | 0.00 | 0.00 | 95 | 1017.8 |
| 20260508085040 | 47 | 355 | 4.0 | 13.0 | 0.00 | 0.00 | 0.00 | 95 | 1017.7 |
| 20260508084539 | 48 | 310 | 5.0 | 11.0 | 0.00 | 0.00 | 0.00 | 95 | 1017.7 |
| 20260508084038 | 48 | 355 | 2.0 | 13.0 | 0.00 | 0.00 | 0.00 | 95 | 1017.6 |
| 20260508083537 | 48 | 5 | 7.0 | 13.0 | 0.00 | 0.00 | 0.00 | 95 | 1017.5 |
| 20260508083056 | 47 | 355 | 2.0 | 11.0 | 0.00 | 0.00 | 0.00 | 95 | 1017.5 |
| 20260508082539 | 47 | 327 | 6.0 | 13.0 | 0.00 | 0.00 | 0.00 | 95 | 1017.5 |
| 20260508082036 | 47 | 348 | 2.0 | 14.0 | 0.00 | 0.00 | 0.00 | 95 | 1017.4 |
| 20260508081547 | 47 | 304 | 6.0 | 14.0 | 0.00 | 0.00 | 0.00 | 95 | 1017.4 |
| 20260508081034 | 47 | 333 | 5.0 | 12.0 | 0.00 | 0.00 | 0.00 | 95 | 1017.4 |
| 20260508080534 | 47 | 293 | 7.0 | 12.0 | 0.00 | 0.00 | 0.00 | 95 | 1017.4 |
| 20260508080034 | 47 | 329 | 5.0 | 12.0 | 0.00 | 0.00 | 0.00 | 95 | 1017.4 |
| 20260508075533 | 47 | 342 | 7.0 | 12.0 | 0.00 | 0.00 | 0.00 | 95 | 1017.3 |
| 20260508075033 | 47 | 332 | 4.0 | 12.0 | 0.00 | 0.00 | 0.00 | 95 | 1017.2 |
| 20260508074533 | 47 | 322 | 2.0 | 11.0 | 0.00 | 0.00 | 0.00 | 95 | 1017.2 |
| 20260508074032 | 47 | 291 | 4.0 | 11.0 | 0.00 | 0.00 | 0.00 | 95 | 1017.2 |
| 20260508073530 | 47 | 343 | 5.0 | 11.0 | 0.00 | 0.00 | 0.00 | 95 | 1017.1 |
| 20260508073030 | 47 | 329 | 5.0 | 11.0 | 0.00 | 0.00 | 0.00 | 95 | 1017.1 |
| 20260508072529 | 47 | 308 | 4.0 | 9.0 | 0.00 | 0.00 | 0.00 | 95 | 1017.2 |
| 20260508072028 | 47 | 270 | 6.0 | 11.0 | 0.00 | 0.00 | 0.00 | 95 | 1017.2 |
| 20260508071528 | 47 | 294 | 3.0 | 11.0 | 0.00 | 0.00 | 0.00 | 95 | 1017.2 |
| 20260508071027 | 47 | 344 | 4.0 | 11.0 | 0.00 | 0.00 | 0.00 | 95 | 1017.2 |
| 20260508070034 | 47 | 299 | 3.0 | 11.0 | 0.00 | 0.00 | 0.00 | 95 | 1017.0 |
| 20260508065524 | 47 | 291 | 5.0 | 10.0 | 0.00 | 0.01 | 0.00 | 95 | 1016.9 |
| 20260508065024 | 47 | 315 | 3.0 | 10.0 | 0.00 | 0.01 | 0.00 | 95 | 1016.9 |
| 20260508064529 | 47 | 329 | 1.0 | 8.0 | 0.00 | 0.01 | 0.00 | 95 | 1016.9 |
| 20260508064025 | 47 | 289 | 3.0 | 10.0 | 0.00 | 0.01 | 0.00 | 95 | 1016.9 |
| 20260508063526 | 47 | 360 | 5.0 | 11.0 | 0.00 | 0.01 | 0.00 | 95 | 1016.8 |
| 20260508063026 | 47 | 325 | 7.0 | 11.0 | 0.00 | 0.01 | 0.00 | 95 | 1016.8 |
| 20260508062522 | 47 | 323 | 1.0 | 10.0 | 0.00 | 0.01 | 0.00 | 95 | 1016.8 |
| 20260508062021 | 46 | 321 | 6.0 | 10.0 | 0.00 | 0.01 | 0.00 | 95 | 1016.7 |
| 20260508061521 | 47 | 5 | 1.0 | 11.0 | 0.00 | 0.01 | 0.00 | 95 | 1016.7 |
| 20260508061020 | 47 | 328 | 1.0 | 11.0 | 0.00 | 0.01 | 0.00 | 95 | 1016.6 |
| 20260508060520 | 47 | 342 | 4.0 | 11.0 | 0.00 | 0.01 | 0.00 | 95 | 1016.6 |
| 20260508060019 | 46 | 348 | 4.0 | 9.0 | 0.00 | 0.01 | 0.00 | 95 | 1016.5 |
| 20260508055518 | 46 | 323 | 4.0 | 11.0 | 0.00 | 0.04 | 0.00 | 95 | 1016.6 |
| 20260508055017 | 46 | 345 | 6.0 | 11.0 | 0.00 | 0.04 | 0.00 | 94 | 1016.6 |
| 20260508054516 | 46 | 360 | 5.0 | 11.0 | 0.00 | 0.04 | 0.00 | 95 | 1016.6 |
| 20260508054015 | 46 | 295 | 2.0 | 9.0 | 0.00 | 0.04 | 0.00 | 95 | 1016.7 |
| 20260508053516 | 46 | 339 | 0.0 | 9.0 | 0.00 | 0.04 | 0.00 | 94 | 1016.6 |
| 20260508053016 | 46 | 330 | 4.0 | 9.0 | 0.00 | 0.04 | 0.00 | 94 | 1016.5 |
| 20260508052012 | 46 | 312 | 6.0 | 11.0 | 0.00 | 0.04 | 0.00 | 94 | 1016.5 |
| 20260508051513 | 46 | 355 | 1.0 | 11.0 | 0.00 | 0.04 | 0.00 | 94 | 1016.5 |
| 20260508051012 | 46 | 330 | 2.0 | 9.0 | 0.00 | 0.04 | 0.00 | 94 | 1016.6 |
| 20260508050512 | 46 | 326 | 6.0 | 9.0 | 0.00 | 0.04 | 0.00 | 94 | 1016.5 |
| 20260508050011 | 46 | 331 | 3.0 | 12.0 | 0.00 | 0.04 | 0.00 | 94 | 1016.5 |
| 20260508045511 | 46 | 313 | 2.0 | 12.0 | 0.00 | 0.04 | 0.00 | 94 | 1016.5 |
| 20260508045011 | 46 | 315 | 3.0 | 10.0 | 0.00 | 0.04 | 0.00 | 94 | 1016.5 |
| 20260508044513 | 46 | 321 | 5.0 | 10.0 | 0.00 | 0.04 | 0.00 | 94 | 1016.4 |
| 20260508044011 | 46 | 299 | 3.0 | 9.0 | 0.00 | 0.04 | 0.00 | 94 | 1016.4 |
| 20260508043509 | 46 | 291 | 3.0 | 7.0 | 0.00 | 0.04 | 0.00 | 94 | 1016.4 |
| 20260508043009 | 46 | 303 | 2.0 | 8.0 | 0.00 | 0.04 | 0.00 | 94 | 1016.4 |
| 20260508042539 | 46 | 300 | 2.0 | 8.0 | 0.00 | 0.04 | 0.00 | 94 | 1016.4 |
| 20260508042046 | 46 | 316 | 2.0 | 9.0 | 0.00 | 0.04 | 0.00 | 93 | 1016.2 |
| 20260508041546 | 46 | 313 | 3.0 | 9.0 | 0.00 | 0.04 | 0.00 | 93 | 1016.1 |
| 20260508041045 | 46 | 355 | 0.0 | 9.0 | 0.00 | 0.04 | 0.00 | 93 | 1016.0 |
| 20260508040544 | 46 | 355 | 2.0 | 9.0 | 0.00 | 0.04 | 0.00 | 93 | 1016.0 |
| 20260508040044 | 46 | 327 | 2.0 | 6.0 | 0.00 | 0.04 | 0.00 | 93 | 1015.8 |
| 20260508035543 | 46 | 344 | 3.0 | 11.0 | 0.00 | 0.06 | 0.00 | 93 | 1015.8 |
| 20260508035044 | 46 | 336 | 5.0 | 11.0 | 0.00 | 0.06 | 0.00 | 93 | 1015.8 |
| 20260508034542 | 46 | 317 | 4.0 | 9.0 | 0.00 | 0.06 | 0.00 | 93 | 1015.8 |
| 20260508034041 | 46 | 355 | 2.0 | 9.0 | 0.00 | 0.06 | 0.00 | 93 | 1015.8 |
| 20260508033541 | 46 | 325 | 0.0 | 6.0 | 0.00 | 0.06 | 0.00 | 92 | 1015.8 |
| 20260508033041 | 46 | 10 | 0.0 | 8.0 | 0.00 | 0.06 | 0.00 | 92 | 1015.8 |
| 20260508032541 | 46 | 355 | 1.0 | 9.0 | 0.00 | 0.06 | 0.00 | 92 | 1015.8 |
| 20260508032040 | 46 | 339 | 2.0 | 9.0 | 0.00 | 0.06 | 0.00 | 92 | 1015.7 |
| 20260508031550 | 46 | 336 | 3.0 | 13.0 | 0.00 | 0.06 | 0.00 | 92 | 1015.7 |
| 20260508031040 | 46 | 355 | 3.0 | 13.0 | 0.00 | 0.06 | 0.00 | 92 | 1015.7 |
| 20260508030541 | 46 | 342 | 5.0 | 14.0 | 0.00 | 0.06 | 0.00 | 91 | 1015.7 |
| 20260508030049 | 46 | 336 | 6.0 | 14.0 | 0.00 | 0.06 | 0.00 | 91 | 1015.6 |
| 20260508025538 | 46 | 15 | 7.0 | 13.0 | 0.00 | 0.06 | 0.00 | 91 | 1015.6 |
| 20260508025037 | 46 | 320 | 7.0 | 13.0 | 0.00 | 0.06 | 0.00 | 91 | 1015.6 |
| 20260508024538 | 46 | 5 | 4.0 | 13.0 | 0.00 | 0.06 | 0.00 | 91 | 1015.5 |
| 20260508024037 | 46 | 326 | 7.0 | 13.0 | 0.00 | 0.06 | 0.00 | 90 | 1015.5 |
| 20260508023536 | 47 | 360 | 8.0 | 15.0 | 0.00 | 0.06 | 0.00 | 90 | 1015.6 |
| 20260508023041 | 47 | 5 | 4.0 | 15.0 | 0.00 | 0.06 | 0.00 | 90 | 1015.6 |
| 20260508022535 | 47 | 355 | 0.0 | 5.0 | 0.00 | 0.06 | 0.00 | 90 | 1015.6 |
| 20260508022035 | 47 | 355 | 0.0 | 11.0 | 0.00 | 0.06 | 0.00 | 90 | 1015.6 |
| 20260508021537 | 47 | 5 | 2.0 | 14.0 | 0.00 | 0.06 | 0.00 | 89 | 1015.6 |
| 20260508021033 | 47 | 318 | 6.0 | 14.0 | 0.00 | 0.06 | 0.00 | 89 | 1015.6 |
| 20260508020533 | 47 | 355 | 6.0 | 15.0 | 0.00 | 0.06 | 0.00 | 89 | 1015.5 |
| 20260508020032 | 47 | 360 | 7.0 | 15.0 | 0.00 | 0.06 | 0.00 | 89 | 1015.6 |
| 20260508015632 | 47 | 21 | 6.0 | 15.0 | 0.00 | 0.06 | 0.00 | 89 | 1015.6 |
| 20260508015031 | 47 | 337 | 7.0 | 18.0 | 0.00 | 0.06 | 0.00 | 89 | 1015.5 |
| 20260508014531 | 47 | 277 | 12.0 | 18.0 | 0.00 | 0.06 | 0.00 | 88 | 1015.6 |
| 20260508014031 | 47 | 360 | 5.0 | 9.0 | 0.00 | 0.06 | 0.00 | 88 | 1015.5 |
| 20260508013530 | 47 | 348 | 2.0 | 13.0 | 0.00 | 0.06 | 0.00 | 88 | 1015.5 |
| 20260508013030 | 47 | 25 | 5.0 | 15.0 | 0.00 | 0.06 | 0.00 | 88 | 1015.6 |
| 20260508012529 | 47 | 317 | 8.0 | 19.0 | 0.00 | 0.06 | 0.00 | 88 | 1015.5 |
| 20260508012028 | 47 | 355 | 9.0 | 18.0 | 0.00 | 0.06 | 0.00 | 88 | 1015.6 |
| 20260508011529 | 47 | 355 | 2.0 | 14.0 | 0.00 | 0.06 | 0.00 | 88 | 1015.6 |
| 20260508011027 | 48 | 360 | 8.0 | 13.0 | 0.00 | 0.06 | 0.00 | 88 | 1015.6 |
| 20260508010526 | 48 | 346 | 2.0 | 13.0 | 0.00 | 0.06 | 0.00 | 88 | 1015.7 |
| 20260508010028 | 48 | 355 | 6.0 | 13.0 | 0.00 | 0.06 | 0.00 | 88 | 1015.7 |
| 20260508005526 | 48 | 342 | 7.0 | 13.0 | 0.00 | 0.06 | 0.00 | 88 | 1015.7 |
| 20260508005025 | 48 | 340 | 4.0 | 19.0 | 0.00 | 0.06 | 0.00 | 88 | 1015.7 |
| 20260508004528 | 48 | 5 | 9.0 | 21.0 | 0.00 | 0.06 | 0.00 | 88 | 1015.7 |
| 20260508004024 | 48 | 360 | 9.0 | 18.0 | 0.00 | 0.06 | 0.00 | 88 | 1015.7 |
| 20260508003523 | 48 | 338 | 10.0 | 18.0 | 0.00 | 0.06 | 0.00 | 88 | 1015.5 |
| 20260508003022 | 48 | 308 | 10.0 | 18.0 | 0.00 | 0.06 | 0.00 | 88 | 1015.5 |
| 20260508002521 | 48 | 316 | 12.0 | 23.0 | 0.00 | 0.06 | 0.00 | 88 | 1015.4 |
| 20260508002020 | 48 | 344 | 12.0 | 23.0 | 0.00 | 0.06 | 0.00 | 88 | 1015.2 |
| 20260508001519 | 48 | 343 | 10.0 | 17.0 | 0.00 | 0.06 | 0.00 | 88 | 1015.4 |
| 20260508001018 | 48 | 344 | 2.0 | 17.0 | 0.00 | 0.06 | 0.00 | 88 | 1015.4 |
| 20260508000521 | 49 | 5 | 5.0 | 17.0 | 0.00 | 0.06 | 0.00 | 88 | 1015.3 |
| 20260508000016 | 49 | 5 | 7.0 | 15.0 | 0.00 | 0.06 | 0.00 | 88 | 1015.3 |
| 20260507235517 | 49 | 360 | 6.0 | 17.0 | 0.00 | 0.06 | 0.00 | 88 | 1015.3 |
| 20260507235115 | 49 | 340 | 11.0 | 17.0 | 0.00 | 0.06 | 0.00 | 88 | 1015.3 |
| 20260507234514 | 49 | 5 | 6.0 | 15.0 | 0.00 | 0.06 | 0.00 | 88 | 1015.3 |
| 20260507234016 | 49 | 355 | 4.0 | 18.0 | 0.00 | 0.06 | 0.00 | 88 | 1015.2 |
| 20260507233515 | 49 | 343 | 11.0 | 19.0 | 0.00 | 0.06 | 0.00 | 88 | 1015.3 |
| 20260507233014 | 49 | 333 | 10.0 | 20.0 | 0.00 | 0.06 | 0.00 | 88 | 1015.2 |
| 20260507232512 | 49 | 329 | 9.0 | 16.0 | 0.00 | 0.06 | 0.00 | 88 | 1015.2 |
| 20260507232010 | 49 | 331 | 5.0 | 13.0 | 0.00 | 0.06 | 0.00 | 88 | 1015.2 |
| 20260507231516 | 49 | 9 | 4.0 | 15.0 | 0.00 | 0.06 | 0.00 | 88 | 1015.1 |
| 20260507231010 | 49 | 331 | 7.0 | 15.0 | 0.00 | 0.06 | 0.00 | 88 | 1015.1 |
| 20260507230510 | 49 | 327 | 6.0 | 14.0 | 0.00 | 0.06 | 0.00 | 88 | 1015.2 |
| 20260507230009 | 49 | 350 | 3.0 | 14.0 | 0.00 | 0.06 | 0.00 | 88 | 1015.2 |
| 20260507225512 | 49 | 355 | 4.0 | 14.0 | 0.00 | 0.08 | 0.00 | 88 | 1015.1 |
| 20260507225010 | 49 | 360 | 8.0 | 15.0 | 0.00 | 0.08 | 0.00 | 88 | 1015.0 |
| 20260507224508 | 49 | 9 | 6.0 | 17.0 | 0.00 | 0.08 | 0.00 | 88 | 1015.0 |
| 20260507224107 | 49 | 360 | 8.0 | 17.0 | 0.00 | 0.08 | 0.00 | 88 | 1015.0 |
| 20260507223508 | 49 | 360 | 6.0 | 13.0 | 0.00 | 0.08 | 0.00 | 89 | 1015.1 |
| 20260507223007 | 49 | 17 | 3.0 | 12.0 | 0.00 | 0.08 | 0.00 | 89 | 1015.1 |
| 20260507222605 | 49 | 11 | 5.0 | 12.0 | 0.00 | 0.08 | 0.00 | 89 | 1015.1 |
| 20260507222007 | 49 | 9 | 5.0 | 15.0 | 0.00 | 0.08 | 0.00 | 89 | 1014.9 |
| 20260507221506 | 49 | 5 | 8.0 | 15.0 | 0.00 | 0.08 | 0.00 | 89 | 1014.9 |
| 20260507221001 | 49 | 315 | 8.0 | 15.0 | 0.00 | 0.08 | 0.00 | 89 | 1014.8 |
| 20260507220600 | 49 | 355 | 2.0 | 11.0 | 0.00 | 0.08 | 0.00 | 90 | 1014.8 |
| 20260507220502 | 49 | 355 | 4.0 | 16.0 | 0.00 | 0.08 | 0.00 | 90 | 1014.7 |
| 20260507220059 | 49 | 360 | 4.0 | 16.0 | 0.00 | 0.08 | 0.00 | 90 | 1014.8 |
| 20260507215559 | 49 | 350 | 9.0 | 16.0 | 0.00 | 0.14 | 0.08 | 90 | 1014.7 |
| 20260507215100 | 49 | 323 | 6.0 | 16.0 | 0.00 | 0.14 | 0.08 | 90 | 1014.7 |
| 20260507214657 | 49 | 339 | 6.0 | 15.0 | 0.00 | 0.14 | 0.08 | 90 | 1014.8 |
| 20260507214057 | 49 | 5 | 8.0 | 14.0 | 0.00 | 0.14 | 0.08 | 90 | 1014.7 |
| 20260507213557 | 50 | 320 | 5.0 | 14.0 | 0.00 | 0.14 | 0.08 | 90 | 1014.7 |
| 20260507213101 | 50 | 334 | 5.0 | 11.0 | 0.00 | 0.14 | 0.08 | 90 | 1014.7 |
| 20260507212556 | 50 | 30 | 1.0 | 15.0 | 0.00 | 0.14 | 0.08 | 90 | 1014.7 |
| 20260507212054 | 50 | 19 | 5.0 | 13.0 | 0.00 | 0.14 | 0.08 | 90 | 1014.6 |
| 20260507211558 | 50 | 360 | 3.0 | 14.0 | 0.00 | 0.14 | 0.08 | 90 | 1014.7 |
| 20260507211053 | 50 | 355 | 7.0 | 14.0 | 0.00 | 0.14 | 0.08 | 90 | 1014.7 |
| 20260507210553 | 50 | 344 | 6.0 | 11.0 | 0.00 | 0.14 | 0.08 | 90 | 1014.7 |
| 20260507210053 | 50 | 5 | 5.0 | 11.0 | 0.00 | 0.14 | 0.08 | 91 | 1014.8 |
| 20260507205553 | 50 | 19 | 5.0 | 11.0 | 0.00 | 0.14 | 0.08 | 90 | 1014.9 |
| 20260507205057 | 50 | 58 | 3.0 | 14.0 | 0.00 | 0.14 | 0.08 | 91 | 1014.9 |
| 20260507204557 | 50 | 343 | 8.0 | 14.0 | 0.00 | 0.14 | 0.08 | 90 | 1014.8 |
| 20260507204054 | 50 | 346 | 6.0 | 13.0 | 0.00 | 0.14 | 0.08 | 90 | 1014.7 |
| 20260507203551 | 50 | 339 | 6.0 | 14.0 | 0.00 | 0.14 | 0.08 | 90 | 1014.7 |
| 20260507203049 | 50 | 327 | 9.0 | 14.0 | 0.00 | 0.14 | 0.08 | 90 | 1014.5 |
| 20260507202549 | 50 | 333 | 4.0 | 13.0 | 0.00 | 0.14 | 0.08 | 90 | 1014.5 |
| 20260507202049 | 50 | 335 | 4.0 | 13.0 | 0.00 | 0.14 | 0.08 | 90 | 1014.5 |
| 20260507201555 | 50 | 5 | 6.0 | 13.0 | 0.00 | 0.14 | 0.08 | 90 | 1014.5 |
| 20260507201048 | 50 | 355 | 4.0 | 11.0 | 0.00 | 0.14 | 0.08 | 90 | 1014.5 |
| 20260507200547 | 50 | 311 | 2.0 | 8.0 | 0.00 | 0.14 | 0.08 | 90 | 1014.5 |
| 20260507200051 | 50 | 329 | 0.0 | 13.0 | 0.00 | 0.14 | 0.08 | 90 | 1014.4 |
| 20260507195547 | 50 | 355 | 4.0 | 13.0 | 0.00 | 0.14 | 0.08 | 90 | 1014.3 |
| 20260507195045 | 51 | 360 | 3.0 | 9.0 | 0.00 | 0.14 | 0.08 | 90 | 1014.2 |
| 20260507194550 | 51 | 351 | 1.0 | 15.0 | 0.00 | 0.14 | 0.08 | 90 | 1014.2 |
| 20260507194147 | 51 | 5 | 8.0 | 15.0 | 0.00 | 0.14 | 0.08 | 90 | 1014.1 |
| 20260507193543 | 50 | 347 | 4.0 | 9.0 | 0.00 | 0.14 | 0.08 | 90 | 1014.1 |
| 20260507193043 | 50 | 5 | 3.0 | 15.0 | 0.00 | 0.14 | 0.08 | 90 | 1014.1 |
| 20260507192543 | 51 | 355 | 10.0 | 15.0 | 0.00 | 0.14 | 0.08 | 90 | 1014.0 |
| 20260507192043 | 50 | 355 | 5.0 | 13.0 | 0.00 | 0.14 | 0.08 | 90 | 1014.0 |
| 20260507191552 | 51 | 5 | 5.0 | 16.0 | 0.00 | 0.14 | 0.08 | 90 | 1014.1 |
| 20260507191041 | 51 | 327 | 8.0 | 16.0 | 0.00 | 0.14 | 0.08 | 89 | 1014.1 |
| 20260507190541 | 51 | 17 | 6.0 | 15.0 | 0.00 | 0.14 | 0.08 | 89 | 1014.0 |
| 20260507190040 | 51 | 5 | 8.0 | 17.0 | 0.00 | 0.14 | 0.08 | 89 | 1013.8 |
| 20260507184538 | 51 | 360 | 10.0 | 17.0 | 0.00 | 0.14 | 0.08 | 89 | 1013.5 |
| 20260507184036 | 51 | 360 | 7.0 | 14.0 | 0.00 | 0.14 | 0.08 | 89 | 1013.5 |
| 20260507182033 | 51 | 344 | 4.0 | 15.0 | 0.00 | 0.14 | 0.08 | 89 | 1013.2 |
| 20260507180529 | 52 | 321 | 2.0 | 13.0 | 0.00 | 0.14 | 0.08 | 89 | 1013.1 |
| 20260507180130 | 52 | 42 | 2.0 | 15.0 | 0.00 | 0.14 | 0.08 | 89 | 1013.0 |
| 20260507175528 | 52 | 355 | 8.0 | 19.0 | 0.00 | 0.14 | 0.08 | 89 | 1013.0 |
| 20260507174004 | 52 | 355 | 6.0 | 14.0 | 0.00 | 0.14 | 0.08 | 89 | 1012.9 |
| 20260507173504 | 52 | 5 | 5.0 | 17.0 | 0.00 | 0.14 | 0.08 | 88 | 1013.0 |
| 20260507173006 | 52 | 360 | 3.0 | 17.0 | 0.00 | 0.14 | 0.08 | 88 | 1012.9 |
| 20260507171042 | 52 | 5 | 5.0 | 13.0 | 0.00 | 0.14 | 0.08 | 88 | 1012.6 |
| 20260507170540 | 52 | 11 | 1.0 | 13.0 | 0.00 | 0.14 | 0.08 | 88 | 1012.7 |
| 20260507170039 | 52 | 355 | 3.0 | 13.0 | 0.00 | 0.14 | 0.08 | 88 | 1012.5 |
| 20260507165537 | 53 | 13 | 0.0 | 9.0 | 0.00 | 0.14 | 0.08 | 88 | 1012.4 |
| 20260507165521 | 53 | 13 | 1.0 | 11.0 | 0.00 | 0.14 | 0.08 | 88 | 1012.3 |
| 20260507164509 | 53 | 5 | 2.0 | 12.0 | 0.00 | 0.14 | 0.08 | 88 | 1012.2 |
| 20260507162105 | 53 | 9 | 7.0 | 21.0 | 0.00 | 0.14 | 0.08 | 87 | 1011.9 |